Weather Roundup
Issued by NWS

Home | Current Version | Previous Version | Graphics & Text | Print | Product List | Glossary Off
Versions: 1 2 3 4 5 6 7 8 9 10 11 12 13 14 15 16 17 18 19 20 21 22 23 24 25 26 27 28 29 30 31 32 33 34 35 36 37 38 39 40 41 42 43 44 45 46 47 48 49 50

000
NZUS93 KARX 230910
HRRWXR

CURRENT HOURLY OBSERVATIONS ACROSS
MUCH OF THE UPPER MISSISSIPPI VALLEY
NATIONAL WEATHER SERVICE LA CROSSE WI
400 AM CDT TUE SEP 23 2014


...SOUTHEAST MINNESOTA...


CITY           SKY/WX    TMP DP  RH WIND       PRES   REMARKS
ROCHESTER      CLEAR     48  45  89 S8        30.23S
ROCHESTER/MAYO FAIR      50  45  82 SE3       30.22S
WINONA         MOCLDY    48  48 100 CALM      30.22S
AUSTIN         CLEAR     45  43  93 SE3       30.21F
ALBERT LEA     CLEAR     52  48  87 S3        30.21S
DODGE CENTER   PTCLDY    48  46  93 CALM      30.21F
PRESTON        CLEAR     49  49 100 S6        30.23S
OWATONNA       CLEAR     52  46  82 SE5       30.20S
FARIBAULT      CLEAR     48  43  81 SE5       30.20S
$$

...ELSEWHERE IN MINNESOTA...


CITY           SKY/WX    TMP DP  RH WIND       PRES   REMARKS
MINNEAPOLIS    CLEAR     52  48  86 SE6       30.18S
INTNL FALLS    CLEAR     41  40  96 SE3       30.11S
DULUTH         CLEAR     54  47  77 CALM      30.17S
RED WING       CLEAR     46  46 100 CALM      30.19S
REDWOOD FALLS  CLEAR     50  47  89 S6        30.14S
MANKATO        CLEAR     52  43  71 S9        30.18S
WORTHINGTON    CLEAR     54  46  76 S6        30.16S
FAIRMONT       CLEAR     46  41  81 S7        30.17F
$$

...SOUTHWEST WISCONSIN...


CITY           SKY/WX    TMP DP  RH WIND       PRES   REMARKS
LA CROSSE      FOG       52  50  93 SE6       30.23S VSB 1
PRAIRIE DU CHI CLEAR     47  46  95 E3        30.25S
BOSCOBEL       FOG       47  45  93 CALM      30.26S VSB 1/4
LONE ROCK      HAZE      47  42  83 CALM      30.26S VSB 1/2
PLATTEVILLE    CLEAR     49  46  88 SE5       30.28R
FORT MC COY    FOG       41  41 100 CALM      30.25R VSB 3/4
CAMP DOUGLAS   CLEAR     41  41 100 E2        30.24R FOG
VIROQUA        FAIR      51  49  95 S3        30.25R
WIS DELLS      CLEAR     47  45  91 CALM      30.25R
$$

...ELSEWHERE IN WISCONSIN...


CITY           SKY/WX    TMP DP  RH WIND       PRES   REMARKS
MILWAUKEE      CLEAR     55  45  68 W5        30.26R
MADISON        CLEAR     47  45  93 CALM      30.26R
GREEN BAY      CLEAR     47  46  97 W3        30.23R
EAU CLAIRE     FOG       43  42  97 CALM      30.21R VSB 1/2
BLACK RVR FLS  FOG       38  38 100 CALM      30.22S VSB<1/4
MEDFORD        FOG       42  42 100 CALM      30.22S VSB 1
WAUSAU         CLEAR     47  46  97 CALM      30.22R
WIS RAPIDS     CLEAR     44  43  96 CALM      30.25R FOG
MARSHFIELD     FOG       47  46  97 CALM      30.23R VSB 3/4
RICE LAKE        N/A     44  43  97 CALM      30.21S FOG
$$

...NORTHEAST IOWA...


CITY           SKY/WX    TMP DP  RH WIND       PRES   REMARKS
WATERLOO       CLEAR     46  43  89 E5        30.23S
DUBUQUE        CLEAR     47  44  90 S3        30.27R
DECORAH        CLEAR     52  46  82 CALM      30.24R
MASON CITY     CLEAR     44  44 100 S6        30.23S
CHARLES CITY   CLEAR     50  46  87 SE6       30.23F
OELWEIN        CLEAR     46  45  93 SE7       30.25S
$$

...ELSEWHERE IN IOWA...


CITY           SKY/WX    TMP DP  RH WIND       PRES   REMARKS
DES MOINES     CLEAR     55  50  83 S8        30.21F
IOWA CITY      CLEAR     47  46  97 CALM      30.27R
FORT DODGE     CLEAR     55  48  76 S3        30.20F
MARSHALLTOWN   CLEAR     46  44  93 E6        30.23S
CEDAR RAPIDS   CLEAR     46  45  96 SE3       30.25R
$$

...NORTHERN ILLINOIS...


CITY           SKY/WX    TMP DP  RH WIND       PRES   REMARKS
CHICAGO-OHARE  CLEAR     52  43  71 SW3       30.28R
DUPAGE         CLEAR     49  44  83 S5        30.28S
CHICAGO-MIDWAY CLEAR     53  43  68 SW6       30.29R
MOLINE         CLEAR     45  42  89 CALM      30.27R
ROCKFORD       CLEAR     46  43  89 CALM      30.30R
STERLING       CLEAR     45  39  81 CALM      30.28S
PEORIA         CLEAR     49  46  90 CALM      30.29R
$$

NOTE: "FAIR" INDICATES FEW OR NO CLOUDS BELOW 12,000 FEET WITH NO
SIGNIFICANT WEATHER AND/OR OBSTRUCTIONS TO VISIBILITY. WIND
SPEEDS ARE IN MILES-PER-HOUR.



USA.gov is the U.S. government's official web portal to all federal, state and local government web resources and services.